Location: Memmingen
(47.9830°N, 10.1733°E)
Time: 12:19:49
(UTC+01:00)

ISS - Pass Details

Date: 13 November 2017
Orbit: 402 x 407 km, 51.6° (Epoch: 24 November)

Event Time Altitude Azimuth Distance (km) Brightness Sun altitude
Exits shadow 05:02:31 39° 68° (ENE) 619 -2.5 -23.4°
Drops below altitude 10° 05:04:51 10° 93° (E) 1,455 0.1 -23.0°
Sets 05:06:57 0° 98° (E) 2,313 1.5 -22.7°
